{"data":{"norad_id":63408,"intl_designator":"2025-065K","name":"STARLINK-33692","alt_names":[],"object_type":"PAYLOAD","status":"ACTIVE","operator":null,"country":"US","launch_date":"2025-03-31","launch_site_code":"AFETR","launch_vehicle":null,"mission":null,"orbit_class":"UNKNOWN","rcs_meters":null,"size_class":null,"mass_kg":null,"dimensions":null,"purposes":["comms"],"wikipedia_slug":null,"has_3d_model":false,"image_url":null,"decayed_at":null,"tle_current":{"epoch":"2026-09-19T22:33:10.933632Z","epoch_age_seconds":207227,"freshness":"STALE","line1":"1 63408U 25065K   26262.93970988  .00012408  00000+0  45948-3 0  9997","line2":"2 63408  43.0025  93.8786 0002662 271.7080  88.3467 15.27591355 82503","mean_motion":15.27591355,"eccentricity":0.0002662,"inclination_deg":43.0025,"raan_deg":93.8786,"arg_perigee_deg":271.708,"mean_anomaly_deg":88.3467,"bstar":0.00045948,"rev_number":8250,"period_min":94.266048003394,"perigee_km":481.18865660756,"apogee_km":484.8415339831,"semimajor_km":6861.1520952953,"source":"CELESTRAK","updated_at":"2026-09-21T09:00:34.979369Z"}}}